Weather History for CWQS - December, 2013

Change the Weather History Date:

Tuesday, December 31, 2013

  Actual Average Record
Temperature  
Mean Temperature 46 °F -  
Max Temperature 47 °F - - ()
Min Temperature 44 °F - - ()
Degree Days  
Heating Degree Days 20    
Moisture  
Dew Point -    
Average Humidity    
Maximum Humidity    
Minimum Humidity    
Precipitation  
Precipitation 0.08 in - - ()
Sea Level Pressure  
Sea Level Pressure 30.08 in    
Wind  
Wind Speed 15 mph ()    
Max Wind Speed 31 mph    
Max Gust Speed 34 mph    
T = Trace of Precipitation, MM = Missing Value Source: Averaged Metar Reports

Daily Weather History Graph

Daily Weather History Graph

Search for Another Location

Airport or City:

Trip Planner

Search our weather history database for the weather conditions in past years. The results will help you decide how hot, cold, wet, or windy it might be!

Date:

Astronomy

Dec. 31, 2013 Rise Set
Actual Time 9:06 AM PST 4:42 PM PST
Civil Twilight 8:23 AM PST 5:25 PM PST
Nautical Twilight 7:38 AM PST 6:10 PM PST
Astronomical Twilight 6:56 AM PST 6:52 PM PST
Moon 7:59 AM PST (12/31) 4:34 PM PST (12/31)
Length of Visible Light 9h 01m
Length of Day
7h 36m
Waning Crescent, 1% of the Moon is Illuminated
Dec 31
Waning Crescent
Jan 1
New
Jan 7
First Quarter
Jan 15
Full
Jan 23
Last Quarter

Hourly Weather History & Observations

Time (PST) Temp. Windchill Dew Point Humidity Pressure Visibility Wind Dir Wind Speed Gust Speed Precip Events Conditions
12:00 AM 45.5 °F 40.8 °F - N/A% 30.06 in - SSW 9.2 mph - N/A   Unknown
1:00 AM 46 °F - - % 30.06 in - SSW 13.8 mph - -  
1:00 AM 45.9 °F 39.7 °F - N/A% 30.06 in - SSW 13.8 mph - N/A   Unknown
2:00 AM 45.7 °F 38.8 °F - N/A% 30.06 in - South 16.1 mph - N/A   Unknown
3:00 AM 44.8 °F 38.3 °F - N/A% 30.06 in - South 13.8 mph - N/A   Unknown
4:00 AM 45 °F - - % 30.08 in - South 15.0 mph - -  
4:00 AM 45.3 °F 38.7 °F - N/A% 30.08 in - South 15.0 mph - N/A   Unknown
5:00 AM 45.3 °F 39.0 °F - N/A% 30.08 in - South 13.8 mph - N/A   Unknown
6:00 AM 44.6 °F 38.4 °F - N/A% 30.09 in - South 12.7 mph - N/A   Unknown
7:00 AM 44 °F - - % 30.09 in - SSE 13.8 mph - -  
7:00 AM 44.4 °F 37.9 °F - N/A% 30.09 in - SSE 13.8 mph - 0.01 in   Unknown
8:00 AM 45.3 °F 39.3 °F - N/A% 30.10 in - South 12.7 mph - 0.01 in   Unknown
9:00 AM 45.5 °F 38.9 °F - N/A% 30.09 in - South 15.0 mph - N/A   Unknown
10:00 AM 45 °F - - % 30.10 in - SSE 12.7 mph - -  
10:00 AM 45.3 °F 39.3 °F - N/A% 30.10 in - SSE 12.7 mph - N/A   Unknown
11:00 AM 45.7 °F 39.5 °F - N/A% 30.11 in - South 13.8 mph - N/A   Unknown
12:00 PM 45.7 °F 39.1 °F - N/A% 30.11 in - South 15.0 mph - N/A   Unknown
1:00 PM 46 °F - - % 30.12 in - South 18.4 mph - -  
1:00 PM 46.2 °F 39.0 °F - N/A% 30.12 in - South 18.4 mph - N/A   Unknown
2:00 PM 46.4 °F 39.5 °F - N/A% 30.12 in - South 17.3 mph - N/A   Unknown
3:00 PM 46.4 °F 39.0 °F - N/A% 30.10 in - South 19.6 mph 25.3 mph 0.01 in   Unknown
4:00 PM 46 °F - - % 30.10 in - South 24.2 mph - -  
4:00 PM 46.0 °F 37.6 °F - N/A% 30.10 in - South 24.2 mph 29.9 mph N/A   Unknown
5:00 PM 46.0 °F 37.6 °F - N/A% 30.10 in - South 24.2 mph - 0.01 in   Unknown
6:00 PM 46.6 °F - - N/A% 30.08 in - South 24.2 mph 29.9 mph N/A   Unknown
7:00 PM 46 °F - - % 30.07 in - South 26.5 mph - -  
7:00 PM 46.4 °F 37.7 °F - N/A% 30.07 in - South 26.5 mph 34.5 mph 0.01 in   Unknown
8:00 PM 46.9 °F - - N/A% 30.06 in - South 31.1 mph - 0.02 in   Unknown
9:00 PM 46.9 °F - - N/A% 30.04 in - SSE 24.2 mph - 0.02 in   Unknown
10:00 PM 47 °F - - % 30.01 in - SSE 23.0 mph - -  
10:00 PM 46.9 °F - - N/A% 30.01 in - SSE 23.0 mph 31.1 mph 0.02 in   Unknown
11:00 PM 47.1 °F - - N/A% 30.00 in - South 25.3 mph 33.4 mph 0.02 in   Unknown